Weather History for Dallas/Ft Worth, TX

Change the Weather History Date:

Wednesday, February 20, 2013

  Actual Average Record
Temperature  
Mean Temperature 48 °F 51 °F  
Max Temperature 53 °F 61 °F 86 °F (1980)
Min Temperature 42 °F 41 °F 19 °F (1939)
Degree Days  
Heating Degree Days 17 14  
Month to date heating degree days 225 323  
Since 1 July heating degree days 1458 1828  
Cooling Degree Days 0 0  
Month to date cooling degree days 2 0  
Year to date cooling degree days 12 2  
Moisture  
Dew Point 36 °F    
Average Humidity 68    
Maximum Humidity 76    
Minimum Humidity 60    
Precipitation  
Precipitation 0.14 in 0.09 in 2.42 in (1945)
Month to date precipitation 1.53 1.84  
Year to date precipitation 5.59 3.97  
Snow  
Snow 0.00 in 0.00 in 1.00 in (1929)
Month to date snowfall 0.0 0.4  
Since 1 July snowfall 0.8 1.0  
Snow Depth 0.00 in    
Sea Level Pressure  
Sea Level Pressure 30.01 in    
Wind  
Wind Speed 13 mph (East)    
Max Wind Speed 16 mph    
Max Gust Speed 23 mph    
Visibility 10 miles    
Events Rain , Thunderstorm    
T = Trace of Precipitation, MM = Missing Value Source: NWS Daily Summary

Daily Weather History Graph

Daily Weather History Graph

Search for Another Location

Airport:

Trip Planner

Search our weather history database for the weather conditions in past years. The results will help you decide how hot, cold, wet, or windy it might be!

Date:

Astronomy

Feb. 20, 2013 Rise Set
Actual Time 7:05 AM CST 6:18 PM CST
Civil Twilight 6:40 AM CST 6:43 PM CST
Nautical Twilight 6:12 AM CST 7:11 PM CST
Astronomical Twilight 5:43 AM CST 7:40 PM CST
Moon 1:49 PM CST (2/20) 3:17 AM CST (2/20)
Length of Visible Light 12h 02m
Length of Day
11h 12m
Waxing Gibbous, 76% of the Moon is Illuminated
Feb 20
Waxing Gibbous
Feb 25
Full
Mar 4
Last Quarter
Mar 11
New
Mar 19
First Quarter

Hourly Weather History & Observations

Time (CST) Temp. Windchill Dew Point Humidity Pressure Visibility Wind Dir Wind Speed Gust Speed Precip Events Conditions
12:53 AM 52.0 °F - 30.0 °F 43% 30.16 in 10.0 mi East 9.2 mph - 0.00 in Rain Light Rain
1:53 AM 48.9 °F - 35.1 °F 59% 30.14 in 10.0 mi East 9.2 mph - 0.02 in Rain Light Rain
2:53 AM 46.0 °F 41.9 °F 37.9 °F 73% 30.13 in 10.0 mi ENE 8.1 mph - 0.04 in Rain Light Rain
3:53 AM 46.0 °F 41.9 °F 39.9 °F 79% 30.16 in 10.0 mi NNW 8.1 mph - 0.01 in Rain Light Rain
4:53 AM 46.0 °F 41.0 °F 39.9 °F 79% 30.09 in 10.0 mi ENE 10.4 mph - 0.01 in Rain Light Rain
5:53 AM 45.0 °F 38.2 °F 37.9 °F 76% 30.07 in 10.0 mi East 15.0 mph 19.6 mph 0.00 in Rain Light Rain
6:01 AM 45.0 °F 38.5 °F 37.9 °F 76% 30.06 in 10.0 mi ESE 13.8 mph 23.0 mph 0.02 in Rain , Thunderstorm Rain
6:16 AM 45.0 °F 39.7 °F 37.0 °F 74% 30.07 in 10.0 mi East 10.4 mph 20.7 mph 0.03 in Rain Light Rain
6:53 AM 44.1 °F 38.6 °F 37.9 °F 79% 30.06 in 10.0 mi East 10.4 mph - 0.03 in Rain Light Rain
7:53 AM 44.1 °F 37.7 °F 37.0 °F 76% 30.16 in 10.0 mi NNE 12.7 mph - 0.00 in Rain Light Rain
8:53 AM 44.1 °F 37.4 °F 37.9 °F 79% 30.12 in 10.0 mi ENE 13.8 mph - 0.00 in   Overcast
9:53 AM 46.9 °F - 37.9 °F 71% 30.10 in 10.0 mi East 15.0 mph - 0.00 in   Mostly Cloudy
10:53 AM 46.0 °F 39.6 °F 37.9 °F 73% 30.08 in 10.0 mi East 15.0 mph 25.3 mph 0.00 in Rain Light Rain
11:53 AM 45.0 °F 38.2 °F 37.9 °F 76% 30.06 in 10.0 mi East 15.0 mph - 0.01 in Rain Light Rain
12:53 PM 46.0 °F 38.5 °F 37.0 °F 71% 30.02 in 10.0 mi ESE 19.6 mph 24.2 mph 0.02 in   Overcast
1:53 PM 45.0 °F 37.9 °F 35.1 °F 68% 30.00 in 10.0 mi East 16.1 mph - 0.00 in   Overcast
2:53 PM 46.4 °F 40.4 °F 33.8 °F 62% 29.98 in 10.0 mi ESE 13.8 mph - N/A   Overcast
3:53 PM 44.6 °F 37.8 °F 33.8 °F 66% 29.95 in 10.0 mi East 15.0 mph - N/A   Overcast
4:53 PM 45.0 °F 38.2 °F 34.0 °F 65% 29.91 in 10.0 mi East 15.0 mph 23.0 mph N/A   Overcast
5:53 PM 44.1 °F 37.7 °F 36.0 °F 73% 29.92 in 10.0 mi East 12.7 mph - N/A   Overcast
6:53 PM 42.8 °F 35.8 °F 35.6 °F 76% 29.92 in 10.0 mi ENE 13.8 mph - N/A   Overcast
7:53 PM 42.1 °F 34.9 °F 35.1 °F 76% 29.91 in 10.0 mi East 13.8 mph - N/A   Overcast
8:53 PM 42.1 °F 35.7 °F 34.0 °F 73% 29.87 in 10.0 mi East 11.5 mph - N/A   Overcast
9:53 PM 42.8 °F 35.8 °F 33.8 °F 70% 29.84 in 10.0 mi East 13.8 mph - N/A   Overcast
10:53 PM 43.0 °F 36.8 °F 34.0 °F 71% 29.82 in 10.0 mi East 11.5 mph - N/A   Overcast
11:53 PM 43.0 °F 34.8 °F 33.1 °F 68% 29.78 in 10.0 mi ESE 18.4 mph 24.2 mph N/A   Overcast